FDX9900 LIMC-EKCH

Flight info

Callsign FDX9900
Flight time N/A
Altitude 36000
Route SRN6LXOSKOR6S/35R OSKOR DCT NESTI/N0476F380 DCT TAGIP DCT BRENO DCT KONIN DCT EXITI DCT EMBOX/N0478F370 DCT NOBRI/N0478F380 M726 ROSOK Q296 MONAK
Aircraft B77L/H-SDE1E2E3FGHIJ2J3J4J5M1RWXY/LB1D1

Departure

Time N/A
Airport Milan Malpensa International Airport (LIMC)

Arrival

Time 2026-05-06 16:53
Airport Copenhagen Kastrup Airport (EKCH)
Time Latitude Longitude Altitude Speed Heading
2026-05-06 16:53 55.61355 12.63632 29 ft 34 kts 41°
2026-05-06 16:53 55.61534 12.63900 28 ft 32 kts 29°
2026-05-06 16:53 55.61741 12.63939 32 ft 30 kts
2026-05-06 16:53 55.61920 12.64112 29 ft 27 kts 15°
2026-05-06 16:54 55.62091 12.64253 25 ft 27 kts 22°
2026-05-06 16:54 55.62211 12.64447 25 ft 24 kts 102°
2026-05-06 16:54 55.62126 12.64699 31 ft 24 kts 124°
2026-05-06 16:54 55.62034 12.64948 28 ft 24 kts 123°
2026-05-06 16:55 55.61937 12.65212 24 ft 26 kts 123°
2026-05-06 16:55 55.61837 12.65481 26 ft 26 kts 123°
2026-05-06 16:55 55.61737 12.65753 26 ft 26 kts 123°
2026-05-06 16:55 55.61648 12.66037 27 ft 27 kts 104°
2026-05-06 16:56 55.61692 12.66346 27 ft 28 kts 44°
2026-05-06 16:56 55.61845 12.66510 23 ft 25 kts 68°
2026-05-06 16:56 55.61878 12.66807 19 ft 20 kts 79°
2026-05-06 16:56 55.61877 12.66933 19 ft 0 kts 107°
2026-05-06 16:57 55.61870 12.66971 21 ft 14 kts 107°
2026-05-06 16:57 55.61877 12.67140 20 ft 6 kts 78°
2026-05-06 16:57 55.61879 12.67157 20 ft 3 kts 78°
2026-05-06 16:57 55.61883 12.67189 23 ft 3 kts 78°
2026-05-06 16:58 55.61887 12.67224 22 ft 5 kts 78°
2026-05-06 16:58 55.61890 12.67251 21 ft 1 kts 78°
2026-05-06 16:58 55.61892 12.67263 20 ft 2 kts 78°
2026-05-06 16:58 55.61891 12.67257 20 ft 5 kts 79°
2026-05-06 16:59 55.61876 12.67112 22 ft 19 kts 80°
2026-05-06 16:59 55.61858 12.66965 22 ft 7 kts 79°
2026-05-06 16:59 55.61878 12.67143 20 ft 3 kts 80°
2026-05-06 16:59 55.61878 12.67144 20 ft 0 kts 80°